Location: Niles Junction
(37.5763°N, 121.9714°W)
Time: 03:37:14
(UTC+00:00)

Cosmos 2195 Rocket - Pass Details

Date: 29 October 2020
Orbit: 948 x 994 km, 82.9° (Epoch: 23 November)

Event Time Altitude Azimuth Distance (km) Brightness Sun altitude
Rises 13:03:16 0° 194° (SSW) 3,660 7.4 -17.8°
Reaches altitude 10° 13:05:49 10° 198° (SSW) 2,710 6.7 -17.3°
Maximum altitude 13:11:57 63° 279° (W) 1,075 4.4 -16.1°
Drops below altitude 10° 13:18:04 10° 360° (N) 2,696 6.8 -14.9°
Sets 13:20:36 0° 4° (N) 3,640 7.5 -14.4°
